Wind_Speed
11 12 11 11 12 12 12 13 14 15 16 18 20 21 24 27 28 28 28 29 30 31 32 33 33 34 35 35 36 36 37 38 40 42 43 44 45 45 45 45 45 46 46
15 16 16 16 16 17 18 19 19 19 20 21 22 24 25 28 31 33 35 35 36 36 37 37 38 39 40 41 42 43 44 46 48 49 51 51 51 50 49 48 48 47 47
19 20 20 21 22 23 24 25 26 26 27 27 28 29 30 32 35 38 40 42 43 43 44 44 45 46 47 49 50 52 54 56 56 56 57 57 57 55 53 51 51 50 49
26 27 27 27 28 29 31 32 32 33 34 34 35 36 37 38 40 43 45 47 48 50 50 51 51 53 54 55 56 58 59 60 60 59 59 59 58 57 55 53 53 52 52
31 32 33 33 34 34 35 36 38 39 40 41 41 42 43 45 47 48 50 52 53 55 56 57 58 59 60 60 61 61 61 61 61 60 59 58 58 58 57 56 56 56 55
34 36 37 37 37 38 39 40 41 43 44 46 47 47 48 49 50 51 52 53 54 56 57 59 60 61 62 63 63 63 63 64 63 62 60 59 59 59 59 58 58 57 57
38 40 42 41 41 41 42 44 45 46 47 48 49 50 50 51 51 52 52 53 54 56 57 58 59 60 61 62 64 65 66 65 63 62 60 59 59 59 58 58 58 58 58
41 44 45 45 45 45 45 46 47 49 50 51 51 51 51 52 53 54 54 56 57 58 60 61 62 63 65 66 67 66 64 62 61 60 60 59 58 58 58 57 57 57 57
45 46 47 46 46 45 46 48 49 50 52 53 52 51 52 52 53 55 57 58 59 60 62 64 65 66 67 67 65 63 62 62 61 61 60 59 58 57 57 57 56 56 55
45 46 47 47 47 48 49 49 50 51 51 51 51 51 52 53 54 56 59 61 62 63 65 66 66 67 67 65 64 63 63 64 64 63 61 59 58 57 56 56 55 53 51
46 47 48 49 49 50 50 51 52 51 50 51 53 55 56 58 58 58 59 61 63 64 65 66 66 66 65 65 65 65 65 65 64 62 60 58 57 56 55 55 53 50 48
48 49 49 49 49 50 52 53 53 53 54 56 58 59 59 59 59 59 58 58 60 62 64 65 67 67 66 66 66 66 66 65 64 61 59 57 55 55 54 53 51 49 47
47 48 48 48 49 51 52 53 54 55 57 59 60 60 59 58 58 58 58 59 61 63 65 67 69 69 69 69 69 69 68 66 64 63 60 58 57 55 55 54 51 49 47
48 49 49 51 53 53 53 54 56 58 59 60 59 58 58 58 59 61 63 65 65 66 67 68 69 70 70 70 70 69 68 67 66 65 63 61 59 57 57 55 53 51 50
51 51 52 54 54 55 56 57 59 60 60 59 58 57 58 60 62 64 66 68 70 69 68 69 71 72 73 72 70 69 69 68 68 67 66 64 62 59 58 57 55 54 53
50 50 52 54 56 57 57 59 60 61 60 58 58 58 60 62 64 67 69 71 72 73 71 71 73 75 75 74 72 70 68 67 66 64 63 62 61 59 58 59 58 57 56
53 55 56 58 59 59 60 62 63 62 60 59 59 61 63 64 66 68 69 71 72 73 73 72 73 73 73 71 67 63 58 56 54 53 52 52 52 52 54 56 57 57 58
56 57 58 58 59 60 62 63 62 60 59 59 60 62 64 66 67 68 69 70 72 73 74 72 67 64 60 57 54 51 48 45 42 41 41 42 42 43 45 47 50 53 56
58 58 57 57 58 59 59 58 58 58 58 59 60 62 63 65 66 68 69 70 71 69 67 62 56 51 47 46 43 41 37 34 32 32 33 33 34 35 36 38 41 45 49
57 57 56 56 57 57 58 59 58 57 57 57 59 61 62 64 66 67 67 66 63 58 53 49 45 40 38 38 35 31 27 25 24 25 26 27 28 29 30 32 34 38 42
56 57 57 58 59 58 58 56 54 54 55 56 58 60 61 63 65 64 60 54 49 45 42 38 33 31 30 29 26 21 20 20 20 21 21 22 22 23 25 28 31 34 37
58 58 58 59 58 56 53 52 52 53 54 55 57 59 59 59 57 52 46 41 38 36 31 27 24 22 21 19 18 16 15 16 16 17 16 16 17 17 20 22 25 28 30
58 57 56 56 53 51 49 49 50 52 54 55 55 54 52 48 43 38 34 32 30 27 22 18 16 15 15 14 13 12 11 11 11 11 10 11 11 12 14 15 16 18 20
54 53 53 51 49 48 48 49 50 51 51 50 48 45 41 36 32 29 26 23 20 17 14 12 11 11 11 10 9 8 8 8 8 8 7 7 8 8 9 11 12 13 14
50 50 48 47 46 47 47 48 47 45 44 42 40 35 31 27 24 22 18 14 12 11 10 10 9 9 8 8 7 7 7 7 7 7 6 6 7 7 7 8 10 11 12
46 45 45 45 45 45 44 41 38 37 37 36 32 28 25 22 20 16 13 11 10 10 10 9 9 9 8 8 7 8 8 8 8 8 8 8 9 9 10 10 11 11 12
Wind_Direction
306 306 306 306 305 307 308 307 303 301 297 294 290 288 287 287 288 289 288 286 284 281 279 278 278 278 278 278 278 278 279 280 280 280 279 278 277 276 276 276 276 275 274
312 313 313 311 308 304 300 296 291 287 284 283 284 283 281 281 281 281 282 282 281 280 278 278 277 277 278 278 277 277 278 278 279 278 278 276 275 274 274 274 274 274 273
324 323 321 317 313 309 305 302 299 296 293 291 289 286 284 283 282 282 282 282 282 280 278 277 276 275 275 276 277 278 279 279 279 279 278 277 275 273 272 271 272 272 271
321 319 318 319 320 317 313 309 305 301 298 296 294 291 289 288 286 285 284 283 282 282 281 279 278 277 277 278 279 280 281 280 280 280 280 278 276 275 273 272 271 271 270
313 311 310 311 311 311 311 308 304 300 297 295 293 291 290 289 288 288 288 287 286 285 284 283 282 281 280 280 281 282 283 282 282 282 281 280 278 277 276 275 273 271 269
301 301 301 301 301 302 302 302 300 298 296 295 294 293 293 292 291 291 291 291 290 288 287 286 285 284 283 283 283 284 284 285 285 283 282 279 277 276 276 276 274 272 269
293 293 292 293 294 296 297 297 295 294 294 294 295 295 294 293 292 292 292 292 292 291 290 289 288 287 286 286 285 285 285 285 284 283 281 279 278 277 276 275 273 271 269
288 288 288 290 292 294 295 294 293 294 295 295 295 294 293 293 292 292 292 293 293 292 291 290 288 287 286 285 285 286 285 284 283 282 282 281 280 279 276 273 270 268 265
285 286 289 290 293 295 296 295 294 295 296 296 296 295 294 293 293 293 292 292 291 289 288 288 288 288 288 288 287 286 284 283 283 283 283 281 280 276 273 269 267 265 263
288 289 291 294 296 297 296 295 294 295 297 297 297 297 296 294 292 290 291 290 289 289 288 289 290 290 290 288 286 285 284 284 284 283 282 279 276 272 268 266 264 263 261
292 293 294 296 297 296 295 295 295 296 296 297 297 296 294 293 292 290 288 289 291 291 291 291 291 290 288 287 286 286 286 285 284 283 281 278 273 268 265 263 262 259 257
294 294 295 295 295 295 295 295 296 296 296 296 296 294 293 292 291 291 290 290 291 291 291 290 289 288 287 287 286 286 285 285 283 281 278 276 272 267 263 261 259 255 252
294 294 294 294 294 294 295 294 295 295 295 295 294 293 292 292 292 292 293 293 293 292 291 290 289 288 287 287 287 286 285 283 282 279 276 273 270 265 262 259 256 252 249
293 293 292 293 293 293 293 294 295 294 295 294 293 292 292 292 292 293 294 294 293 292 291 289 288 288 288 287 286 284 282 281 279 277 274 272 268 264 260 257 254 249 246
296 296 295 294 293 294 295 296 295 296 296 295 294 293 293 293 294 295 295 294 292 290 288 288 288 288 287 286 285 283 281 279 277 275 272 269 265 261 258 256 252 248 244
298 298 298 296 295 296 297 298 298 297 296 295 295 296 296 296 296 295 294 293 292 292 291 290 289 288 287 286 285 283 281 279 276 273 270 266 263 258 255 253 250 247 244
300 299 297 296 294 295 296 299 298 295 294 294 295 297 297 297 296 295 295 295 295 294 293 291 290 289 288 287 286 285 282 279 275 271 267 264 260 256 252 249 247 245 243
300 298 296 294 294 295 297 299 298 295 294 296 297 298 297 297 297 297 296 296 295 294 293 292 292 292 291 289 287 286 283 280 274 269 264 261 258 254 251 249 246 244 242
297 295 293 294 296 298 300 301 300 298 297 298 298 298 298 298 298 297 296 295 295 295 295 295 295 293 290 289 288 287 284 278 272 266 262 259 257 255 252 248 245 242 241
294 294 294 297 300 301 302 302 302 300 300 300 300 299 299 299 298 297 296 296 297 297 297 296 296 293 291 290 289 287 283 277 270 264 261 258 257 255 251 246 242 239 239
293 296 298 300 303 303 304 304 303 302 302 302 301 301 300 298 297 298 299 299 299 299 298 298 298 295 292 292 293 289 282 275 270 265 262 260 258 256 251 246 243 241 241
296 298 299 301 303 305 305 305 304 303 303 303 303 302 300 299 300 302 303 303 303 303 303 303 302 299 298 299 298 294 286 280 275 274 271 266 263 257 253 250 247 245 245
298 300 301 303 304 305 305 305 305 305 305 305 304 303 303 304 305 307 308 308 308 309 312 313 311 310 310 309 307 303 299 294 289 290 285 274 269 257 253 249 247 247 246
299 300 302 303 305 305 306 307 307 307 307 307 307 308 309 311 312 315 317 317 318 322 326 328 328 326 324 323 321 319 317 310 304 300 290 277 272 260 251 249 248 247 248
299 301 303 305 306 307 308 308 309 309 310 312 313 315 318 321 326 330 334 340 345 349 349 349 348 346 344 339 333 329 324 318 311 303 286 274 271 270 266 262 260 259 258
302 304 305 306 307 308 309 310 312 313 315 317 319 323 328 335 342 349 359 7 12 11 8 5 1 358 354 349 342 334 326 318 308 298 287 278 275 278 279 277 275 271 264
Height
5866 5865 5864 5863 5861 5859 5858 5857 5856 5854 5853 5851 5850 5848 5846 5843 5841 5840 5839 5838 5837 5836 5835 5834 5833 5831 5830 5829 5827 5827 5826 5826 5825 5825 5824 5824 5823 5823 5823 5823 5823 5823 5823
5863 5861 5859 5858 5857 5856 5855 5854 5853 5852 5849 5847 5845 5843 5841 5838 5835 5833 5831 5830 5829 5828 5827 5825 5824 5822 5821 5820 5818 5817 5816 5815 5814 5814 5813 5813 5812 5812 5812 5812 5813 5812 5813
5860 5857 5856 5854 5853 5851 5850 5848 5847 5845 5843 5841 5839 5837 5835 5832 5829 5826 5823 5821 5820 5818 5817 5815 5814 5812 5810 5809 5808 5806 5805 5803 5801 5800 5799 5799 5798 5799 5799 5799 5800 5800 5801
5854 5851 5850 5848 5847 5844 5842 5840 5838 5837 5835 5833 5831 5829 5827 5825 5822 5819 5816 5813 5810 5807 5805 5804 5802 5800 5799 5797 5795 5793 5791 5789 5787 5785 5783 5782 5782 5782 5783 5784 5785 5785 5786
5848 5845 5843 5841 5839 5838 5836 5834 5831 5829 5826 5825 5823 5821 5818 5815 5812 5810 5807 5803 5799 5796 5793 5791 5789 5787 5785 5783 5781 5779 5776 5774 5772 5770 5768 5766 5765 5765 5765 5766 5768 5769 5770
5843 5840 5837 5835 5833 5831 5829 5827 5825 5821 5819 5816 5814 5812 5808 5804 5801 5798 5794 5791 5787 5783 5780 5777 5774 5771 5769 5767 5765 5763 5760 5758 5756 5755 5753 5751 5750 5749 5749 5749 5750 5751 5753
5835 5832 5830 5828 5825 5823 5821 5819 5815 5812 5809 5807 5804 5801 5798 5793 5789 5786 5782 5778 5774 5770 5766 5762 5759 5756 5753 5751 5749 5746 5744 5741 5740 5738 5737 5735 5733 5732 5732 5731 5732 5733 5735
5826 5823 5820 5819 5817 5814 5812 5809 5805 5802 5798 5795 5793 5790 5787 5783 5777 5773 5769 5764 5760 5756 5751 5748 5744 5741 5738 5735 5732 5729 5727 5725 5723 5722 5720 5718 5716 5714 5713 5713 5713 5715 5717
5816 5814 5812 5810 5807 5804 5801 5798 5795 5791 5787 5783 5780 5777 5773 5770 5765 5760 5755 5751 5747 5742 5738 5733 5729 5724 5720 5717 5714 5711 5709 5708 5706 5704 5702 5700 5698 5696 5695 5695 5696 5698 5699
5807 5805 5802 5800 5798 5794 5791 5787 5784 5781 5776 5771 5767 5763 5759 5756 5753 5749 5742 5736 5732 5727 5723 5718 5712 5707 5703 5699 5696 5693 5691 5689 5687 5686 5684 5681 5680 5678 5677 5677 5679 5681 5683
5798 5796 5793 5790 5787 5783 5780 5776 5772 5769 5764 5760 5755 5750 5745 5741 5737 5734 5730 5724 5717 5712 5706 5701 5695 5689 5684 5681 5677 5674 5671 5669 5667 5665 5664 5663 5662 5661 5661 5661 5663 5665 5668
5790 5786 5783 5780 5776 5772 5769 5764 5761 5757 5752 5747 5741 5736 5731 5726 5721 5717 5714 5709 5704 5698 5691 5685 5678 5672 5667 5663 5658 5655 5652 5649 5647 5645 5644 5643 5643 5644 5644 5645 5648 5651 5654
5781 5777 5773 5769 5766 5762 5758 5754 5750 5746 5740 5735 5729 5723 5717 5711 5706 5701 5696 5692 5688 5683 5676 5668 5660 5653 5648 5642 5638 5634 5631 5629 5626 5625 5624 5624 5625 5626 5627 5629 5632 5636 5640
5772 5768 5764 5760 5755 5751 5747 5742 5738 5732 5727 5721 5715 5708 5703 5696 5691 5684 5679 5674 5670 5666 5659 5651 5642 5634 5628 5622 5617 5612 5609 5607 5606 5604 5604 5604 5605 5607 5609 5612 5617 5621 5626
5761 5757 5753 5749 5744 5739 5734 5729 5723 5717 5711 5705 5699 5693 5688 5681 5675 5667 5660 5654 5649 5646 5643 5634 5624 5616 5608 5602 5596 5591 5587 5585 5584 5583 5582 5583 5585 5587 5591 5594 5599 5604 5610
5751 5746 5741 5736 5731 5725 5720 5714 5708 5703 5697 5690 5684 5678 5672 5665 5658 5650 5642 5634 5626 5621 5620 5614 5603 5595 5587 5580 5574 5569 5565 5563 5561 5560 5560 5561 5563 5567 5571 5575 5580 5586 5592
5740 5735 5729 5723 5718 5711 5706 5700 5695 5689 5682 5676 5670 5663 5656 5649 5641 5633 5624 5616 5607 5599 5595 5592 5581 5573 5565 5559 5553 5548 5545 5543 5541 5540 5540 5542 5544 5548 5552 5556 5561 5567 5573
5727 5722 5716 5710 5704 5698 5692 5686 5679 5674 5668 5662 5655 5648 5640 5632 5623 5615 5606 5597 5588 5579 5572 5568 5562 5553 5546 5540 5536 5532 5529 5527 5526 5525 5525 5527 5529 5532 5536 5539 5544 5549 5555
5715 5709 5703 5697 5690 5684 5678 5672 5666 5659 5653 5647 5640 5632 5623 5615 5606 5597 5588 5579 5570 5561 5552 5547 5544 5538 5532 5526 5523 5519 5516 5515 5514 5514 5514 5515 5518 5520 5523 5526 5530 5535 5540
5701 5695 5689 5683 5677 5671 5665 5658 5652 5645 5638 5631 5623 5616 5607 5598 5589 5580 5571 5562 5553 5546 5539 5533 5529 5525 5521 5515 5512 5509 5507 5505 5505 5505 5505 5506 5508 5510 5512 5516 5519 5523 5528
5687 5682 5676 5670 5664 5657 5651 5644 5637 5630 5623 5616 5608 5600 5591 5581 5571 5563 5554 5547 5540 5533 5528 5523 5519 5515 5511 5507 5504 5502 5501 5499 5499 5498 5499 5499 5500 5502 5504 5506 5509 5513 5517
5674 5668 5662 5656 5650 5644 5637 5630 5623 5616 5609 5602 5594 5584 5575 5565 5557 5549 5541 5535 5528 5522 5518 5515 5511 5507 5505 5502 5500 5498 5496 5495 5494 5493 5493 5494 5494 5496 5497 5499 5501 5504 5507
5660 5655 5649 5643 5637 5631 5624 5617 5610 5603 5595 5587 5579 5570 5561 5553 5546 5539 5533 5526 5520 5515 5512 5509 5506 5504 5502 5499 5497 5495 5493 5492 5491 5490 5490 5490 5490 5491 5492 5493 5494 5496 5498
5647 5642 5636 5630 5625 5618 5612 5605 5597 5590 5581 5573 5566 5558 5551 5544 5537 5531 5525 5520 5515 5512 5509 5507 5505 5503 5500 5498 5495 5493 5491 5490 5489 5488 5488 5488 5487 5488 5488 5489 5490 5491 5492
5635 5629 5624 5618 5613 5606 5600 5593 5585 5577 5570 5563 5556 5550 5544 5538 5532 5526 5521 5517 5514 5512 5509 5507 5505 5502 5500 5497 5495 5493 5491 5490 5489 5487 5486 5486 5486 5486 5486 5486 5486 5486 5487
5623 5617 5612 5607 5601 5595 5588 5582 5575 5569 5562 5556 5550 5544 5538 5533 5528 5524 5520 5518 5516 5513 5511 5508 5506 5503 5500 5498 5495 5493 5491 5489 5488 5486 5485 5485 5484 5484 5484 5483 5483 5483 5483